Data for 06/20/2018

Time Sea-Level Adjusted Pressure Absolute Pressure Temperature Relative Humidity Dew Point   
(mb) (inHg) (mb) (inHg) (C) (F) (%) (C) (F)
00:05 1025 30.27 854 25.22 11.1 51.9 88 9.1 48.4
00:10 1025 30.27 854 25.22 11 51.9 87 9 48.3
00:15 1025 30.27 854 25.22 11 51.8 88 9 48.3
00:20 1025 30.27 854 25.22 10.9 51.6 88 9 48.2
00:25 1025 30.27 854 25.22 10.8 51.4 88 8.9 48
00:30 1025 30.27 854 25.22 10.7 51.3 87 8.7 47.6
00:35 1025 30.27 854 25.22 10.7 51.2 87 8.5 47.4
00:40 1025 30.27 854 25.22 10.7 51.3 86 8.4 47.1
00:45 1025 30.27 854 25.22 10.7 51.2 85 8.3 46.9
00:50 1025 30.27 854 25.22 10.7 51.2 84 8.2 46.7
00:55 1025 30.27 854 25.22 10.6 51.1 84 8.1 46.6
01:00 1025 30.27 854 25.22 10.6 51.1 84 8.1 46.6
01:05 1024 30.24 854 25.22 10.6 51.2 84 8.1 46.7
01:10 1024 30.24 854 25.22 10.6 51.2 84 8.1 46.5
01:15 1025 30.27 854 25.22 10.7 51.2 84 8.1 46.5
01:20 1024 30.24 854 25.22 10.7 51.3 83 7.9 46.3
01:25 1024 30.24 854 25.22 10.8 51.4 83 8 46.4
01:30 1024 30.24 853 25.19 10.9 51.5 83 8 46.5
01:35 1024 30.24 853 25.19 10.9 51.6 83 8.1 46.6
01:40 1024 30.24 853 25.19 10.9 51.7 84 8.3 46.9
01:45 1024 30.24 853 25.19 10.9 51.5 84 8.3 47
01:50 1024 30.24 853 25.19 10.7 51.3 85 8.3 46.9
01:55 1024 30.24 853 25.19 10.7 51.2 85 8.3 46.9
02:00 1024 30.24 854 25.22 10.6 51.1 85 8.3 46.9
02:05 1024 30.24 853 25.19 10.6 51.1 85 8.3 46.9
02:10 1024 30.24 853 25.19 10.6 51 86 8.3 47
02:15 1024 30.24 853 25.19 10.5 50.8 87 8.3 47
02:20 1024 30.24 853 25.19 10.3 50.6 87 8.3 46.9
02:25 1024 30.24 853 25.19 10.2 50.3 88 8.2 46.8
02:30 1024 30.24 853 25.19 10 49.9 88 8.2 46.7
02:35 1024 30.24 853 25.19 9.9 49.8 88 8.1 46.5
02:40 1024 30.24 853 25.19 9.9 49.7 88 8 46.4
02:45 1024 30.24 854 25.22 9.8 49.6 88 7.9 46.2
02:50 1024 30.24 854 25.22 9.7 49.5 88 7.9 46.1
02:55 1024 30.24 853 25.19 9.7 49.4 88 7.8 46
03:00 1024 30.24 854 25.22 9.5 49.2 88 7.6 45.7
03:05 1024 30.24 854 25.22 9.5 49 87 7.4 45.3
03:10 1024 30.24 854 25.22 9.5 49.1 86 7.3 45.1
03:15 1024 30.24 854 25.22 9.5 49.2 86 7.3 45.2
03:20 1024 30.24 854 25.22 9.5 49.1 86 7.3 45.2
03:25 1024 30.24 854 25.22 9.3 48.7 87 7.3 45.1
03:30 1024 30.24 854 25.22 9.1 48.4 88 7.3 45.1
03:35 1024 30.24 854 25.22 9 48.3 88 7.2 45
03:40 1024 30.24 854 25.22 9 48.1 88 7.2 44.9
03:45 1024 30.24 854 25.22 9 48.1 89 7.2 44.9
03:50 1024 30.24 854 25.22 9 48.3 88 7.2 44.9
03:55 1024 30.24 854 25.22 9.1 48.4 88 7.2 44.9
04:00 1024 30.24 854 25.22 9.2 48.5 87 7.2 45
04:05 1024 30.24 854 25.22 9.2 48.6 86 7.1 44.8
04:10 1024 30.24 854 25.22 9.3 48.7 86 7 44.6
04:15 1024 30.24 854 25.22 9.3 48.8 85 7 44.7
04:20 1024 30.24 854 25.22 9.4 48.8 85 7 44.6
04:25 1024 30.24 854 25.22 9.5 49.1 85 7.1 44.9
04:30 1024 30.24 854 25.22 9.6 49.3 85 7.2 44.9
04:35 1024 30.24 854 25.22 9.7 49.4 84 7.2 44.9
04:40 1024 30.24 854 25.22 9.7 49.4 84 7.1 44.8
04:45 1024 30.24 854 25.22 9.7 49.4 82 6.8 44.3
04:50 1024 30.24 854 25.22 9.8 49.6 82 6.9 44.4
04:55 1024 30.24 854 25.22 9.8 49.6 83 7 44.7
05:00 1024 30.24 854 25.22 9.7 49.5 82 6.9 44.4
05:05 1024 30.24 854 25.22 9.7 49.4 82 6.8 44.3
05:10 1024 30.24 854 25.22 9.6 49.2 83 6.9 44.5
05:15 1024 30.24 854 25.22 9.4 48.9 85 7 44.5
05:20 1024 30.24 854 25.22 9.4 48.9 86 7.1 44.7
05:25 1024 30.24 854 25.22 9.4 48.8 86 7.1 44.8
05:30 1024 30.24 854 25.22 9.4 49 85 7.1 44.8
05:35 1024 30.24 854 25.22 9.5 49.1 84 7 44.6
05:40 1024 30.24 854 25.22 9.5 49.1 84 7 44.5
05:45 1024 30.24 854 25.22 9.5 49 84 7 44.5
05:50 1024 30.24 854 25.22 9.4 48.9 84 6.8 44.3
05:55 1025 30.27 854 25.22 9.4 48.9 84 6.9 44.4
06:00 1025 30.27 854 25.22 9.4 48.9 84 6.9 44.5
06:05 1025 30.27 854 25.22 9.4 49 85 7.1 44.7
06:10 1025 30.27 854 25.22 9.4 48.9 85 7.1 44.8
06:15 1025 30.27 854 25.22 9.5 49 85 7.1 44.8
06:20 1025 30.27 854 25.22 9.5 49.2 82 6.7 44.1
06:25 1025 30.27 854 25.22 9.8 49.6 81 6.6 43.9
06:30 1025 30.27 854 25.22 9.8 49.7 80 6.5 43.7
06:35 1025 30.27 854 25.22 9.8 49.7 82 7 44.6
06:40 1025 30.27 854 25.22 9.9 49.8 84 7.3 45.1
06:45 1025 30.27 854 25.22 9.8 49.7 84 7.3 45.2
06:50 1025 30.27 854 25.22 9.9 49.9 84 7.4 45.3
06:55 1025 30.27 854 25.22 10 50 85 7.5 45.6
07:00 1025 30.27 854 25.22 10 50 85 7.6 45.6
07:05 1025 30.27 854 25.22 10 50 85 7.7 45.8
07:10 1025 30.27 854 25.22 10 49.9 85 7.6 45.7
07:15 1025 30.27 854 25.22 9.9 49.8 86 7.7 45.8
07:20 1025 30.27 854 25.22 9.9 49.9 87 7.8 46.1
07:25 1025 30.27 854 25.22 10 50 86 7.8 46.1
07:30 1025 30.27 854 25.22 10 50.1 86 7.8 46.1
07:35 1025 30.27 854 25.22 10.1 50.2 86 7.9 46.2
07:40 1025 30.27 854 25.22 10.2 50.4 86 8 46.3
07:45 1025 30.27 854 25.22 10.4 50.6 86 8.1 46.6
07:50 1025 30.27 854 25.22 10.5 50.8 85 8.1 46.5
07:55 1025 30.27 854 25.22 10.6 51 84 8 46.4
08:00 1024 30.24 854 25.22 10.7 51.2 84 8.1 46.6
08:05 1024 30.24 854 25.22 10.9 51.5 84 8.2 46.7
08:10 1024 30.24 854 25.22 11 51.7 82 8.1 46.5
08:15 1024 30.24 854 25.22 11.1 52 81 8 46.3
08:20 1024 30.24 854 25.22 11.3 52.4 81 8.2 46.8
08:25 1024 30.24 854 25.22 11.6 52.9 79 8 46.5
08:30 1024 30.24 854 25.22 11.8 53.2 79 8.2 46.7
08:35 1024 30.24 854 25.22 12 53.6 78 8.3 46.9
08:40 1024 30.24 854 25.22 12.4 54.3 76 8.3 46.9
08:45 1024 30.24 854 25.22 12.6 54.7 74 8 46.4
08:50 1024 30.24 854 25.22 12.6 54.7 73 7.9 46.2
08:55 1025 30.27 854 25.22 12.8 55.1 69 7.3 45.1
09:00 1025 30.27 854 25.22 12.9 55.2 70 7.6 45.8
09:05 1024 30.24 854 25.22 13.6 56.4 67 7.6 45.7
09:10 1024 30.24 854 25.22 14.3 57.7 65 7.8 46.1
09:15 1024 30.24 854 25.22 14.3 57.7 64 7.7 45.8
09:20 1024 30.24 854 25.22 14.3 57.7 63 7.4 45.3
09:25 1024 30.24 854 25.22 14.6 58.2 62 7.4 45.3
09:30 1024 30.24 854 25.22 14.2 57.5 64 7.6 45.7
09:35 1024 30.24 854 25.22 14.2 57.6 64 7.6 45.7
09:40 1024 30.24 854 25.22 14.8 58.7 62 7.6 45.7
09:45 1024 30.24 854 25.22 15.2 59.3 59 7.4 45.3
09:50 1024 30.24 854 25.22 14.3 57.7 65 7.9 46.2
09:55 1024 30.24 854 25.22 14.2 57.5 63 7.3 45.1
10:00 1024 30.24 854 25.22 14.2 57.5 63 7.2 45
10:05 1024 30.24 854 25.22 14.7 58.5 60 7.2 45
10:10 1024 30.24 854 25.22 15.6 60 60 8 46.3
10:15 1024 30.24 854 25.22 14.9 58.8 62 7.8 46.1
10:20 1024 30.24 854 25.22 15.3 59.6 60 7.7 45.9
10:25 1024 30.24 854 25.22 16.3 61.4 58 8.1 46.5
10:30 1024 30.24 854 25.22 16.4 61.5 55 7.6 45.6
10:35 1024 30.24 854 25.22 16.6 61.8 56 7.9 46.3
10:40 1024 30.24 854 25.22 16 60.8 60 8.3 46.9
10:45 1024 30.24 853 25.19 15.4 59.7 61 8 46.4
10:50 1024 30.24 853 25.19 15.8 60.4 57 7.3 45.1
10:55 1024 30.24 853 25.19 17 62.6 54 7.6 45.8
11:00 1024 30.24 853 25.19 17.6 63.6 49 6.9 44.5
11:05 1024 30.24 853 25.19 17.7 63.8 51 7.7 45.8
11:10 1024 30.24 853 25.19 17 62.5 55 8 46.5
11:15 1024 30.24 853 25.19 16 60.7 57 7.5 45.5
11:20 1024 30.24 853 25.19 16.1 60.9 55 7.2 45
11:25 1024 30.24 853 25.19 17.2 63 53 7.7 45.9
11:30 1024 30.24 853 25.19 16.5 61.7 57 8 46.4
11:35 1024 30.24 853 25.19 16.7 62.1 54 7.4 45.3
11:40 1024 30.24 853 25.19 17.8 64 48 6.9 44.3
11:45 1024 30.24 853 25.19 17.4 63.3 53 7.7 45.9
11:50 1024 30.24 853 25.19 17.3 63.1 50 6.9 44.5
11:55 1024 30.24 853 25.19 18.2 64.7 48 7.1 44.8
12:00 1024 30.24 853 25.19 18.7 65.6 47 7.3 45.1
12:05 1024 30.24 853 25.19 18.9 66.1 44 6.7 44
12:10 1024 30.24 853 25.19 18.8 65.8 46 7.1 44.8
12:15 1024 30.24 853 25.19 17.9 64.1 52 7.9 46.2
12:20 1024 30.24 853 25.19 17.9 64.1 47 6.6 43.9
12:25 1024 30.24 853 25.19 19 66.2 51 8.6 47.5
12:30 1024 30.24 853 25.19 18.4 65.1 48 7.3 45.2
12:35 1024 30.24 853 25.19 18.9 66 46 7.1 44.8
12:40 1024 30.24 853 25.19 19.4 67 45 7.3 45.2
12:45 1024 30.24 853 25.19 19.3 66.7 47 7.7 45.9
12:50 1024 30.24 853 25.19 18.8 65.8 47 7.4 45.4
12:55 1024 30.24 853 25.19 19.1 66.3 45 7 44.5
13:00 1024 30.24 853 25.19 19.5 67 44 7.1 44.7
13:05 1024 30.24 853 25.19 19.4 67 43 6.7 44.1
13:10 1024 30.24 853 25.19 19.1 66.3 47 7.5 45.5
13:15 1024 30.24 853 25.19 18.9 66 45 6.9 44.4
13:20 1024 30.24 853 25.19 19.4 66.9 43 6.5 43.7
13:25 1024 30.24 853 25.19 19.9 67.8 40 5.9 42.7
13:30 1024 30.24 853 25.19 19.2 66.6 40 5.4 41.7
13:35 1024 30.24 853 25.19 19.7 67.4 41 6.3 43.4
13:40 1024 30.24 853 25.19 19.2 66.5 45 7.1 44.9
13:45 1024 30.24 853 25.19 19.5 67.1 40 5.7 42.2
13:50 1024 30.24 853 25.19 19.5 67 38 4.8 40.7
13:55 1024 30.24 853 25.19 19.9 67.8 40 6 42.7
14:00 1024 30.24 853 25.19 20.4 68.7 40 6.3 43.4
14:05 1024 30.24 853 25.19 19.5 67.1 44 7.2 45
14:10 1024 30.24 853 25.19 19 66.2 44 6.5 43.8
14:15 1023 30.21 853 25.19 19.8 67.6 39 5.7 42.2
14:20 1023 30.21 853 25.19 20 67.9 40 6.2 43.1
14:25 1023 30.21 853 25.19 20.8 69.5 39 6.6 43.8
14:30 1023 30.21 853 25.19 21.7 71.1 35 5.8 42.5
14:35 1023 30.21 853 25.19 22.3 72.2 34 5.7 42.2
14:40 1023 30.21 852 25.16 22.2 71.9 35 6.1 42.9
14:45 1023 30.21 852 25.16 22.5 72.4 33 5.6 42.1
14:50 1023 30.21 852 25.16 21.8 71.2 37 6.7 44.1
14:55 1023 30.21 852 25.16 21.5 70.6 36 5.9 42.6
15:00 1023 30.21 852 25.16 21.8 71.2 35 5.9 42.6
15:05 1023 30.21 852 25.16 21.7 71.1 34 5.2 41.3
15:10 1023 30.21 852 25.16 21.6 70.9 36 5.9 42.7
15:15 1023 30.21 852 25.16 21.6 70.8 35 5.7 42.2
15:20 1023 30.21 852 25.16 21.1 70 35 5.1 41.2
15:25 1023 30.21 852 25.16 21.9 71.4 34 5.4 41.7
15:30 1023 30.21 852 25.16 21.3 70.3 34 5 40.9
15:35 1023 30.21 852 25.16 20.4 68.8 37 5.3 41.5
15:40 1023 30.21 852 25.16 20.2 68.4 35 4.4 40
15:45 1023 30.21 852 25.16 20.7 69.3 32 3.6 38.5
15:50 1023 30.21 852 25.16 20.5 68.8 32 3.4 38.1
15:55 1023 30.21 852 25.16 20.9 69.5 33 4 39.2
16:00 1023 30.21 852 25.16 21.1 70 31 3.7 38.6
16:05 1023 30.21 852 25.16 22 71.6 30 3.6 38.5
16:10 1023 30.21 852 25.16 21.6 70.9 31 4.1 39.5
16:15 1023 30.21 852 25.16 21.8 71.3 30 3.5 38.4
16:20 1023 30.21 852 25.16 22.1 71.8 31 4.6 40.3
16:25 1023 30.21 852 25.16 21.4 70.6 30 3.3 37.9
16:30 1023 30.21 852 25.16 21.7 71 31 4 39.1
16:35 1023 30.21 852 25.16 22.2 71.9 30 4.1 39.3
16:40 1022 30.18 852 25.16 22.4 72.3 31 4.5 40.1
16:45 1022 30.18 852 25.16 22.3 72.2 30 4.2 39.5
16:50 1022 30.18 852 25.16 22.5 72.4 31 4.5 40.1
16:55 1022 30.18 852 25.16 22.6 72.8 31 4.8 40.7
17:00 1022 30.18 852 25.16 21.6 70.9 32 4.2 39.6
17:05 1022 30.18 852 25.16 21.4 70.6 32 4.5 40
17:10 1022 30.18 852 25.16 21.1 70 33 4.4 39.9
17:15 1022 30.18 851 25.13 20.6 69.1 34 4.5 40
17:20 1022 30.18 851 25.13 20.5 68.9 34 4.2 39.6
17:25 1022 30.18 851 25.13 20.6 69 34 4.3 39.7
17:30 1022 30.18 851 25.13 20.6 69 35 4.8 40.6
17:35 1022 30.18 851 25.13 21.5 70.7 31 4 39.3
17:40 1022 30.18 851 25.13 22.1 71.7 32 4.9 40.9
17:45 1022 30.18 851 25.13 21.3 70.4 35 5.2 41.4
17:50 1022 30.18 851 25.13 21.3 70.4 33 4.7 40.4
17:55 1022 30.18 851 25.13 21.2 70.2 32 4.2 39.5
18:00 1022 30.18 851 25.13 21.3 70.3 33 4.4 40
18:05 1022 30.18 851 25.13 21.4 70.6 32 4.4 40
18:10 1022 30.18 851 25.13 22.3 72.1 30 4.2 39.5
18:15 1022 30.18 851 25.13 22.7 72.8 31 5 41
18:20 1022 30.18 851 25.13 22 71.7 32 4.6 40.2
18:25 1022 30.18 851 25.13 21.2 70.2 33 4.6 40.2
18:30 1022 30.18 851 25.13 21 69.8 35 5.3 41.5
18:35 1022 30.18 851 25.13 21.4 70.5 34 5.1 41.2
18:40 1022 30.18 851 25.13 21.2 70.1 34 5 41
18:45 1022 30.18 851 25.13 20.6 69.1 36 5.3 41.5
18:50 1022 30.18 851 25.13 20.4 68.7 37 5.3 41.6
18:55 1022 30.18 851 25.13 20.2 68.4 37 5.2 41.4
19:00 1022 30.18 851 25.13 20.2 68.4 37 5.4 41.7
19:05 1022 30.18 851 25.13 20.7 69.2 36 5.2 41.3
19:10 1021 30.15 851 25.13 20.3 68.5 37 5.2 41.3
19:15 1022 30.18 851 25.13 20.2 68.4 38 5.5 42
19:20 1021 30.15 851 25.13 20.2 68.3 38 5.7 42.3
19:25 1021 30.15 851 25.13 20.1 68.2 37 5.3 41.5
19:30 1021 30.15 851 25.13 19.9 67.9 38 5.5 41.9
19:35 1021 30.15 851 25.13 19.8 67.7 39 5.7 42.2
19:40 1021 30.15 851 25.13 19.9 67.7 39 5.7 42.3
19:45 1021 30.15 851 25.13 19.7 67.5 39 5.7 42.2
19:50 1021 30.15 851 25.13 19.6 67.4 41 6 42.9
19:55 1021 30.15 851 25.13 19.7 67.5 40 5.8 42.5
20:00 1021 30.15 851 25.13 19.8 67.7 40 5.9 42.6
20:05 1021 30.15 851 25.13 19.9 67.9 39 5.8 42.4
20:10 1022 30.18 851 25.13 20 68 39 5.6 42.1
20:15 1021 30.15 851 25.13 19.8 67.6 40 6 42.8
20:20 1021 30.15 851 25.13 19.7 67.4 40 6 42.8
20:25 1021 30.15 851 25.13 19.6 67.2 42 6.4 43.4
20:30 1021 30.15 851 25.13 19.3 66.8 43 6.6 43.9
20:35 1021 30.15 851 25.13 19.1 66.5 42 6.2 43.2
20:40 1021 30.15 851 25.13 19.1 66.3 44 6.7 44
20:45 1021 30.15 851 25.13 18.9 66 48 7.6 45.7
20:50 1021 30.15 851 25.13 18.7 65.7 48 7.7 45.8
20:55 1021 30.15 851 25.13 18.6 65.4 50 8.1 46.6
21:00 1021 30.15 851 25.13 18.4 65.1 51 8.3 46.9
21:05 1021 30.15 851 25.13 18.2 64.8 53 8.6 47.4
21:10 1021 30.15 851 25.13 18.1 64.6 54 8.8 47.8
21:15 1021 30.15 851 25.13 17.9 64.2 55 8.9 48.1
21:20 1021 30.15 851 25.13 17.7 63.9 57 9.1 48.4
21:25 1021 30.15 851 25.13 17.4 63.4 59 9.3 48.7
21:30 1021 30.15 851 25.13 17.2 62.9 60 9.5 49.1
21:35 1021 30.15 851 25.13 17 62.5 62 9.7 49.4
21:40 1021 30.15 851 25.13 16.9 62.4 63 9.8 49.7
21:45 1022 30.18 851 25.13 16.6 61.9 63 9.6 49.3
21:50 1022 30.18 851 25.13 16.6 61.9 62 9.5 49.1
21:55 1022 30.18 851 25.13 16.6 61.9 61 9.2 48.5
22:00 1022 30.18 851 25.13 16.7 62.1 58 8.5 47.2
22:05 1022 30.18 851 25.13 16.7 62 59 8.8 47.9
22:10 1022 30.18 851 25.13 16.4 61.5 62 9.1 48.4
22:15 1022 30.18 851 25.13 16.1 61 63 9.2 48.6
22:20 1022 30.18 851 25.13 15.9 60.6 63 8.9 48
22:25 1022 30.18 851 25.13 15.8 60.4 64 9.1 48.5
22:30 1021 30.15 851 25.13 15.6 60.1 63 8.8 47.8
22:35 1021 30.15 851 25.13 15.7 60.2 62 8.4 47.2
22:40 1021 30.15 851 25.13 15.8 60.4 62 8.6 47.5
22:45 1021 30.15 851 25.13 15.8 60.4 64 9 48.2
22:50 1021 30.15 851 25.13 15.7 60.3 64 8.9 48
22:55 1021 30.15 851 25.13 15.6 60 65 9 48.2
23:00 1021 30.15 851 25.13 15.5 60 65 9 48.2
23:05 1021 30.15 851 25.13 15.4 59.6 66 9.2 48.5
23:10 1021 30.15 851 25.13 15.3 59.5 67 9.3 48.7
23:15 1021 30.15 850 25.1 15.2 59.4 67 9.2 48.5
23:20 1021 30.15 850 25.1 15.3 59.5 67 9.3 48.7
23:25 1021 30.15 850 25.1 15.2 59.3 67 9.2 48.6
23:30 1021 30.15 850 25.1 15.1 59.2 68 9.3 48.7
23:35 1021 30.15 850 25.1 15.1 59.1 66 8.9 48
23:40 1021 30.15 850 25.1 15.1 59.1 67 9 48.2
23:45 1021 30.15 850 25.1 15 59.1 65 8.6 47.5
23:50 1021 30.15 850 25.1 15.1 59.2 65 8.7 47.6
23:55 1021 30.15 850 25.1 15.1 59.2 66 8.8 47.8
24:00 1021 30.15 850 25.1 15.1 59.1 66 8.8 47.8